Date String (YYYY-MM-DD hh:mm:ss) UTC,Instrument flags,absolute air pressure of the measurement (hPa),sample flow rate (lpm),inlet stack bypass flow (lpm),air temperature of the measurement (°C),ambient temperature measured by the external sensor (°C),aerosol sample conditioner tube jacket temperature (°C),OPC LED temperature (°C),internal box temperature (°C),relative humidity of the measurement (%),span deviation,mass concentration of particles derived from Lorenz-Mie calculation of OPC scattering (μg/m³),mass concentration of particles derived from Lorenz-Mie calculation of OPC scattering (μg/m³),mass concentration of particles derived from Lorenz-Mie calculation of OPC scattering (μg/m³)
DateTimeUTC,F1_M11,P_M11,Q1_M11,Q2_M11,T1_M11,T2_M11,T3_M11,T4_M11,T5_M11,U1_M11,ZSPAN_M11,X2_M11,X0_M11,X1_M11
2023-12-05 22:00:00,SystemResetWarning,0835.1,5.00,000.00,025.9,023.1,000.0,034.3,026.9,15.1,0000.0,0004.09,0011.42,0003.56
2023-12-05 22:01:00,SystemResetWarning,0835.2,5.01,000.00,025.9,023.5,000.0,034.2,027.0,15.1,0000.0,0004.04,0011.21,0003.55
2023-12-05 22:02:00,SystemResetWarning,0835.1,4.99,000.00,025.9,023.8,000.0,034.2,027.1,15.0,0000.0,0004.01,0010.23,0003.52
2023-12-05 22:03:00,SystemResetWarning,0835.2,5.00,000.00,025.9,024.2,000.0,034.2,027.2,15.0,0000.0,0003.97,0009.80,0003.47
2023-12-05 22:04:00,SystemResetWarning,0835.1,5.01,000.00,026.0,024.4,000.0,034.2,027.3,14.9,0000.0,0003.92,0009.44,0003.42
2023-12-05 22:05:00,SystemResetWarning,0835.2,5.00,000.00,026.0,024.7,000.0,034.2,027.4,14.8,0000.0,0003.83,0009.52,0003.34
2023-12-05 22:06:00,SystemResetWarning,0835.2,4.99,000.00,026.0,024.9,000.0,034.2,027.5,14.9,0000.0,0003.77,0010.21,0003.28
2023-12-05 22:07:00,SystemResetWarning,0835.3,5.00,000.00,026.1,025.0,000.0,034.2,027.6,14.9,0000.0,0003.71,0009.68,0003.26
2023-12-05 22:08:00,SystemResetWarning,0835.2,4.99,000.00,026.1,025.2,000.0,034.2,027.7,14.7,0000.0,0003.65,0009.85,0003.24
2023-12-05 22:09:00,SystemResetWarning,0835.3,4.99,000.00,026.2,025.3,000.0,034.2,027.7,14.7,0000.0,0003.63,0009.92,0003.23
2023-12-05 22:10:00,SystemResetWarning,0835.3,5.00,000.00,026.2,025.4,000.0,034.3,027.8,14.7,0000.0,0003.61,0009.30,0003.22
2023-12-05 22:11:00,SystemResetWarning,0835.3,5.01,000.00,026.3,025.5,000.0,034.3,027.8,14.8,0000.0,0003.61,0008.93,0003.23
2023-12-05 22:12:00,SystemResetWarning,0835.3,5.00,000.00,026.3,025.6,000.0,034.3,027.9,14.6,0000.0,0003.65,0008.95,0003.24
2023-12-05 22:13:00,SystemResetWarning,0835.3,5.00,000.00,026.4,025.6,000.0,034.3,027.9,14.8,0000.0,0003.66,0008.92,0003.27
2023-12-05 22:14:00,SystemResetWarning,0835.2,4.98,000.00,026.4,024.4,000.0,034.4,027.9,14.8,0000.0,0003.66,0008.80,0003.29
2023-12-05 22:15:00,SystemResetWarning,0835.1,5.00,000.00,026.3,022.4,000.0,034.3,027.5,14.8,0000.0,0003.69,0008.78,0003.33
2023-12-05 22:16:00,SystemResetWarning,0835.1,5.01,000.00,026.1,021.9,000.0,034.3,027.3,14.8,0000.0,0003.72,0008.51,0003.38
2023-12-05 22:17:00,SystemResetWarning,0835.1,5.01,000.00,026.0,022.3,000.0,034.2,026.8,15.0,0000.0,0003.76,0007.56,0003.42
2023-12-05 22:18:00,SystemResetWarning,0835.1,5.00,000.00,025.9,022.7,000.0,034.2,026.8,15.1,0000.0,0003.77,0007.29,0003.43
2023-12-05 22:19:00,SystemResetWarning,0835.2,5.00,000.00,025.8,023.2,000.0,034.1,026.9,15.1,0000.0,0003.78,0006.65,0003.44
2023-12-05 22:20:00,SystemResetWarning,0835.2,5.00,000.00,025.8,023.5,000.0,034.1,027.0,15.1,0000.0,0003.80,0007.30,0003.46
2023-12-05 22:21:00,SystemResetWarning,0835.2,5.00,000.00,025.8,023.9,000.0,034.1,027.1,15.1,0000.0,0003.83,0007.47,0003.47
2023-12-05 22:22:00,SystemResetWarning,0835.3,5.00,000.00,025.9,024.2,000.0,034.1,027.2,15.0,0000.0,0003.89,0007.67,0003.49
2023-12-05 22:23:00,SystemResetWarning,0835.3,5.00,000.00,025.9,024.4,000.0,034.1,027.3,14.9,0000.0,0003.90,0008.00,0003.51
2023-12-05 22:24:00,SystemResetWarning,0835.3,5.00,000.00,025.9,024.6,000.0,034.1,027.4,14.8,0000.0,0003.92,0008.08,0003.54
2023-12-05 22:25:00,SystemResetWarning,0835.3,5.01,000.00,026.0,024.8,000.0,034.1,027.4,15.2,0000.0,0003.95,0008.11,0003.56
2023-12-05 22:26:00,SystemResetWarning,0835.3,5.00,000.00,026.0,025.0,000.0,034.1,027.5,15.5,0000.0,0003.98,0008.10,0003.58
2023-12-05 22:27:00,SystemResetWarning,0835.2,4.99,000.00,026.0,025.1,000.0,034.1,027.6,15.3,0000.0,0004.00,0008.16,0003.61
2023-12-05 22:28:00,SystemResetWarning,0835.3,4.99,000.00,026.1,025.2,000.0,034.1,027.6,15.3,0000.0,0004.01,0008.22,0003.63
2023-12-05 22:29:00,SystemResetWarning,0835.3,5.00,000.00,026.1,025.3,000.0,034.2,027.7,15.3,0000.0,0004.05,0008.40,0003.65
2023-12-05 22:30:00,SystemResetWarning,0835.3,5.01,000.00,026.2,025.4,000.0,034.2,027.7,15.5,0000.0,0004.10,0008.50,0003.67
2023-12-05 22:31:00,SystemResetWarning,0835.2,5.01,000.00,026.2,025.5,000.0,034.2,027.8,15.6,0000.0,0004.15,0008.03,0003.68
2023-12-05 22:32:00,SystemResetWarning,0835.2,5.00,000.00,026.3,025.6,000.0,034.2,027.8,15.5,0000.0,0004.16,0008.13,0003.69
2023-12-05 22:33:00,SystemResetWarning,0835.2,5.00,000.00,026.3,025.6,000.0,034.3,027.9,15.4,0000.0,0004.15,0008.24,0003.68
2023-12-05 22:34:00,SystemResetWarning,0835.2,4.99,000.00,026.3,024.9,000.0,034.3,027.9,15.4,0000.0,0004.19,0008.00,0003.70
2023-12-05 22:35:00,SystemResetWarning,0835.2,5.00,000.00,026.3,023.1,000.0,034.3,027.6,15.4,0000.0,0004.22,0007.89,0003.73
2023-12-05 22:36:00,SystemResetWarning,0835.3,5.02,000.00,026.2,022.7,000.0,034.2,027.4,15.5,0000.0,0004.29,0007.97,0003.78
2023-12-05 22:37:00,SystemResetWarning,0835.3,5.00,000.00,026.0,023.0,000.0,034.2,027.0,15.6,0000.0,0004.32,0007.96,0003.81
2023-12-05 22:38:00,SystemResetWarning,0835.3,5.00,000.00,025.9,023.3,000.0,034.2,027.0,15.7,0000.0,0004.35,0007.87,0003.84
2023-12-05 22:39:00,SystemResetWarning,0835.3,5.00,000.00,025.9,023.7,000.0,034.2,027.1,15.8,0000.0,0004.40,0007.84,0003.89
2023-12-05 22:40:00,SystemResetWarning,0835.3,4.98,000.00,025.9,024.0,000.0,034.1,027.2,15.9,0000.0,0004.48,0008.14,0003.97
2023-12-05 22:41:00,SystemResetWarning,0835.3,5.00,000.00,026.0,024.3,000.0,034.1,027.3,15.8,0000.0,0004.64,0008.73,0004.09
2023-12-05 22:42:00,SystemResetWarning,0835.3,5.00,000.00,026.0,024.5,000.0,034.1,027.4,15.8,0000.0,0004.73,0009.19,0004.19
2023-12-05 22:43:00,SystemResetWarning,0835.3,5.00,000.00,026.0,024.7,000.0,034.1,027.4,15.7,0000.0,0004.83,0009.35,0004.28
2023-12-05 22:44:00,SystemResetWarning,0835.2,5.00,000.00,026.0,024.9,000.0,034.2,027.5,15.6,0000.0,0004.92,0009.27,0004.37
2023-12-05 22:45:00,SystemResetWarning,0835.3,5.01,000.00,026.1,025.1,000.0,034.2,027.6,15.5,0000.0,0005.01,0010.17,0004.45
2023-12-05 22:46:00,SystemResetWarning,0835.3,4.99,000.00,026.1,025.2,000.0,034.2,027.6,15.5,0000.0,0005.10,0010.31,0004.51
2023-12-05 22:47:00,SystemResetWarning,0835.2,4.98,000.00,026.2,025.3,000.0,034.2,027.7,15.5,0000.0,0005.15,0010.31,0004.57
2023-12-05 22:48:00,SystemResetWarning,0835.2,5.00,000.00,026.2,025.4,000.0,034.2,027.7,15.5,0000.0,0005.22,0010.40,0004.63
2023-12-05 22:49:00,SystemResetWarning,0835.2,5.01,000.00,026.2,025.5,000.0,034.3,027.8,15.4,0000.0,0005.32,0010.73,0004.70
2023-12-05 22:50:00,SystemResetWarning,0835.2,5.00,000.00,026.3,025.6,000.0,034.3,027.8,15.4,0000.0,0005.41,0011.07,0004.77
2023-12-05 22:51:00,SystemResetWarning,0835.3,4.99,000.00,026.3,024.9,000.0,034.3,027.9,15.5,0000.0,0005.43,0011.12,0004.80
2023-12-05 22:52:00,SystemResetWarning,0835.2,5.01,000.00,026.2,023.2,000.0,034.3,027.6,15.7,0000.0,0005.42,0011.42,0004.81
2023-12-05 22:53:00,SystemResetWarning,0835.2,5.02,000.00,026.1,022.7,000.0,034.3,027.4,15.9,0000.0,0005.42,0010.96,0004.81
2023-12-05 22:54:00,SystemResetWarning,0835.3,5.00,000.00,026.0,023.0,000.0,034.2,027.0,16.1,0000.0,0005.42,0010.86,0004.82
2023-12-05 22:55:00,SystemResetWarning,0835.3,5.00,000.00,025.9,023.3,000.0,034.2,027.0,16.1,0000.0,0005.39,0010.44,0004.84
2023-12-05 22:56:00,SystemResetWarning,0835.3,5.00,000.00,025.9,023.7,000.0,034.2,027.1,16.2,0000.0,0005.43,0009.96,0004.88
2023-12-05 22:57:00,SystemResetWarning,0835.2,5.00,000.00,025.9,024.0,000.0,034.2,027.2,16.2,0000.0,0005.45,0009.67,0004.91
2023-12-05 22:58:00,SystemResetWarning,0835.3,5.00,000.00,025.9,024.3,000.0,034.1,027.3,16.3,0000.0,0005.50,0009.79,0004.93
2023-12-05 22:59:00,SystemResetWarning,0835.3,5.00,000.00,026.0,024.5,000.0,034.1,027.4,16.4,0000.0,0005.57,0010.04,0004.95
